{"data":{"norad_id":68350,"intl_designator":"2026-060A","name":"CENTISPACE-2 S1","alt_names":[],"object_type":"PAYLOAD","status":"ACTIVE","operator":null,"country":"PRC","launch_date":"2026-03-22","launch_site_code":"YSLA","launch_vehicle":null,"mission":null,"orbit_class":"UNKNOWN","rcs_meters":null,"size_class":null,"mass_kg":null,"dimensions":null,"purposes":[],"wikipedia_slug":null,"has_3d_model":false,"image_url":null,"decayed_at":null,"tle_current":{"epoch":"2026-05-25T09:17:02.202720Z","epoch_age_seconds":41948,"freshness":"FRESH","line1":"1 68350U 26060A   26145.38683105  .00000289  00000+0  76591-4 0  9998","line2":"2 68350  54.9795 129.1423 0010637  57.9923 302.2108 14.72821798  9405","mean_motion":14.72821798,"eccentricity":0.0010637,"inclination_deg":54.9795,"raan_deg":129.1423,"arg_perigee_deg":57.9923,"mean_anomaly_deg":302.2108,"bstar":7.6591e-5,"rev_number":940,"period_min":97.771502428565,"perigee_km":644.59617000948,"apogee_km":659.55224132842,"semimajor_km":7030.211205669,"source":"CELESTRAK","updated_at":"2026-05-25T13:38:07.760100Z"}}}